Regional Weather Roundup
Issued by NWS New Orleans/Baton Rouge, LA

Home | Current Version | Previous Version | Text Only | Print | Product List | Glossary On
Versions: 1 2 3 4 5 6 7 8 9 10 11 12 13 14 15 16 17 18 19 20 21 22 23 24 25 26 27 28 29 30 31 32 33 34 35 36 37 38 39 40 41 42 43 44 45 46 47 48 49 50
000
ASUS44 KLIX 230814
RWRLIX
NEW ORLEANS REGIONAL WEATHER ROUNDUP
NATIONAL WEATHER SERVICE NEW ORLEANS LA
300 AM CDT WED AUG 23 2017

NOTE: "FAIR" INDICATES FEW OR NO CLOUDS BELOW 12,000 FEET WITH NO
      SIGNIFICANT WEATHER AND/OR OBSTRUCTIONS TO VISIBILITY.
      SKY/WX - SKY CONDITION AND SIGNIFICANT WEATHER.
      TMP - AIR TEMPERATURE.     DP    - DEWPOINT TEMPERATURE.
      RH  - RELATIVE HUMIDITY.   PRES  - PRESSURE.
      HI  - HEAT INDEX.          WCI   - WIND CHILL INDEX.

*  THESE STATIONS ARE NOT NWS OR FAA STATIONS AND ARE NOT UNDER
   NWS QUALITY CONTROL.

LAZ038-040-048-061>063-065>067-069-230900-
SOUTHEAST LOUISIANA

CITY           SKY/WX    TMP DP  RH WIND       PRES   REMARKS
N.O. INTL ARPT MOCLDY    80  78  94 CALM      29.99F
N.O. LAKEFRONT PTCLDY    84  79  85 NW9       29.99F HX  96
N.O. DOWNTOWN*   N/A     83  77  82 N3        30.00F
RESERVE*         N/A     76  73  91 N5        30.00F
SLIDELL        PTCLDY    76  75  97 N5        29.99F
BATON ROUGE    CLEAR     73  71  93 CALM      30.00F
BOOTHVILLE     CLOUDY    83  79  88 CALM      29.99S
BELLE CHASSE   NOT AVBL
BOGALUSA*      NOT AVBL
GALLIANO*      PTSUNNY   79  75  89 CALM      29.98F
NEW ROADS*       N/A     73  73  99 CALM      30.00F
GONZALES*        N/A     73  72  98 CALM      29.99S
HAMMOND*       CLEAR     73  72  94 CALM      30.01F
HOUMA*         NOT AVBL
PORT FOURCHON* MOSUNNY   84  75  74 N6        29.97F

$$

MSZ070-080>082-230900-
SOUTHERN MISSISSIPPI

CITY           SKY/WX    TMP DP  RH WIND       PRES   REMARKS
MCCOMB         CLEAR     74  71  91 CALM      30.01F
GULFPORT       CLEAR     76  74  93 CALM      29.99F
BILOXI         PTCLDY    76  75  94 CALM      29.99F
PASCAGOULA     CLEAR     73  71  93 CALM      29.99F

$$

COASTAL OBSERVATIONS
LAKE AND NEARSHORE STATIONS

STATION/POSITION TIME  TEMP    WIND        PRES    WAVE
                       AIR SEA DIR/SP/G            HT/PER
                 (UTC) (F)     (DEG/KT/KT) (MB)    (FT/S)
PASCAGOULA       0748   77      10/  5/  6 1015.1
WAVELAND YACHT   0736   79 86   30/  2/  3 1015.8
GRAND ISLE       0748   85 89  350/  3/  3 1015.3
SOUTHWEST PASS   0748   85     180/  4/  5   N/A
NEW CANAL        0748   83 88  360/  6/  8 1015.6
SHELL BEACH      0736   84 89  320/  3/  4 1015.6

OFFSHORE STATIONS

STATION/POSITION TIME  TEMP    WIND        PRES    WAVE
                       AIR SEA DIR/SP/G            HT/PER
                 (UTC) (F)     (DEG/KT/KT) (MB)    (FT/S)
64 S DAUPHIN ISL 0750   85 88  150/  2/  4 1015.1    2/ 7

$$




USA.gov is the U.S. government's official web portal to all federal, state and local government web resources and services.